Home   Weather   Maldonado   Past weeks

Flag for Uruguay Past Weather in Maldonado, Uruguay — Yesterday and Last 2 Weeks

Now
64 °F

Clear.


Feels Like: 64 °F
Forecast: N/A
Wind: 8 mph from Northeast

Location: Capitan Corbeta

Current Time: Jul 27, 2017 at 8:08:31 pm

Latest Report: Jul 27, 2017 at 7:00 pm


Visibility: 10 mi

Pressure: 30.09 "Hg

Humidity: 83%

Dew Point: 59 °F

Location of MaldonadoLocation

Past Weather in Maldonado — Graph

°F

Maldonado Temperature Yesterday

Maximum temperature yesterday: 66 °F (at 4:00 pm)
Minimum temperature yesterday: 55 °F (at 4:00 am)
Average temperature yesterday: 60 °F

High & Low Weather Summary for the Past Weeks

 TemperatureHumidityPressure
High79 °F (Jul 15, 3:00 pm)100% (Jul 13, 7:00 am)30.33 "Hg (Jul 13, 7:00 am)
Low34 °F (Jul 18, 6:00 am)26% (Jul 19, 10:00 pm)29.50 "Hg (Jul 15, 2:05 pm)
Average55 °F77%30.08 "Hg
* Reported Jul 12 7:00 pm — Jul 27 7:00 pm, Maldonado. Weather by CustomWeather, © 2017

Note: Actual official high and low records may vary slightly from our data, if they occured in-between our weather recording intervals... More about our weather records

Advertising

Maldonado Weather History for the Previous 24 Hours

Scroll right to see more
 ConditionsComfort  
Time TempWeatherWind HumidityBarometerVisibility
7:00 pm
Thu, Jul 27
64 °FClear.8 mph83%30.09 "Hg10 mi
6:00 pm66 °FClear.8 mph83%30.09 "Hg10 mi
5:00 pm72 °FSunny.8 mph73%30.09 "Hg10 mi
4:00 pm73 °FSunny.8 mph65%30.09 "Hg10 mi
3:00 pm75 °FBroken clouds.7 mph57%30.09 "HgN/A
2:00 pm75 °FBroken clouds.6 mph57%30.12 "HgN/A
1:00 pm75 °FPassing clouds.6 mph61%30.12 "HgN/A
12:00 pm72 °FPassing clouds.3 mph73%30.15 "HgN/A
11:00 am64 °FPassing clouds.5 mph94%30.18 "HgN/A
10:00 am61 °FScattered clouds.5 mph94%30.18 "HgN/A
9:00 am59 °FScattered clouds.5 mph94%30.18 "HgN/A
8:00 am57 °FSunny.7 mph100%30.15 "Hg10 mi
7:00 am57 °FClear.6 mph94%30.15 "Hg10 mi
6:00 am57 °FClear.6 mph94%30.15 "Hg10 mi
5:00 am59 °FFog.9 mph94%30.15 "Hg0 mi
4:00 am59 °FFog.8 mph94%30.15 "Hg0 mi
3:00 am59 °FFog.8 mph94%30.15 "Hg0 mi
2:00 am57 °FFog.8 mph94%30.15 "Hg0 mi
1:00 am57 °FClear.7 mph100%30.15 "Hg5 mi
12:00 am59 °FPassing clouds.9 mph94%30.18 "HgN/A
11:00 pm
Wed, Jul 26
59 °FPassing clouds.5 mph94%30.15 "HgN/A
10:00 pm59 °FPartly cloudy.6 mph94%30.15 "HgN/A
9:00 pm61 °FPassing clouds.6 mph94%30.15 "HgN/A
8:00 pm63 °FClear.7 mph94%30.12 "Hg10 mi
Weather by CustomWeather, © 2017

See weather overviewHow to use our weather pages